This demonstration page uses our WeatherBlox Daily Observations layout. Learn more.

Left ArrowRight Arrow

41.55636, -103.73856

Hourly Observations for June 23, 2019

Temp ( °F °C ) Dew Point ( °F °C ) Humidity (%) Winds ( mph kmh ) Pressure ( in mb ) Visibility ( mi km ) Precip ( " mm )
12:58 am 00:58 Cloudy with Showers 51 10.8 47 8.4 85 85 S 13 20 30.01 1016 10 16 0.04 1.02
1:58 am 01:58 Cloudy with Heavy Showers 49 9.3 46 8 92 92 S 8 13 30.06 1018 4 6 0.28 7.11
2:58 am 02:58 Mostly Cloudy with Light Showers 51 10.3 45 7.2 81 81 SSW 3 6 30.00 1016 10 16 0.03 0.76
3:58 am 03:58 Mostly Cloudy 51 10.7 46 7.5 81 81 SW 8 13 29.99 1016 10 16 N/A
4:58 am 04:58 Mostly Cloudy 49 9.6 46 7.6 87 87 W 10 17 30.00 1016 10 16 N/A
5:58 am 05:58 Mostly Cloudy 49 9.6 46 7.7 88 88 W 5 7 30.00 1016 10 16 N/A
6:58 am 06:58 Mostly Cloudy 50 9.8 46 7.6 86 86 N N/A 29.98 1015 10 16 N/A
7:58 am 07:58 Partly Cloudy 48 8.9 45 7.1 89 89 WSW 5 7 29.96 1015 10 16 N/A
9:58 am 09:58 Cloudy 47 8.5 44 6.8 89 89 W 6 9 29.93 1014 10 16 N/A
10:58 am 10:58 Mostly Cloudy 48 8.8 44 6.8 87 87 W 6 9 29.93 1014 10 16 N/A
11:58 am 11:58 Mostly Cloudy 46 8 42 5.7 86 86 W 23 37 29.95 1014 10 16 N/A
1:58 pm 13:58 Mostly Cloudy 44 6.9 41 5.1 88 88 W 16 26 30.00 1016 10 16 N/A
2:58 pm 14:58 Cloudy with Showers 45 7.4 42 5.4 87 87 NW 15 24 29.99 1016 10 16 0.01 0.25
3:58 pm 15:58 Mostly Cloudy with Light Rain 45 7.2 43 6 92 92 N 10 17 30.01 1016 10 16 0.02 0.51
4:58 pm 16:58 Partly Cloudy 49 9.3 45 7.3 87 87 NNW 15 24 29.99 1016 10 16 N/A
5:58 pm 17:58 Partly Cloudy 51 10.3 45 7.3 82 82 NNW 12 19 29.98 1015 10 16 N/A
6:58 pm 18:58 Mostly Cloudy with Nearby Thunderstorms 52 11.2 44 6.5 73 73 NNW 7 11 29.99 1016 10 16 N/A
7:58 pm 19:58 Mostly Cloudy 54 12.2 45 7.1 71 71 NW 14 22 29.98 1015 10 16 N/A
8:58 pm 20:58 Partly Cloudy 56 13.4 44 6.7 64 64 NNW 14 22 29.96 1015 10 16 N/A
9:58 pm 21:58 Sunny 57 13.9 43 6.1 60 60 NW 8 13 29.95 1014 10 16 N/A
10:58 pm 22:58 Mostly Sunny 59 15.1 44 6.8 58 58 N 9 15 29.92 1013 10 16 N/A
11:58 pm 23:58 Mostly Sunny 59 15.2 44 6.9 58 58 WNW 9 15 29.93 1014 10 16 N/A

Powered by AerisWeather